Time,TemperatureF,DewpointF,PressureIn,WindDirection,WindDirectionDegrees,WindSpeedMPH,WindSpeedGustMPH,Humidity,HourlyPrecipIn,Conditions,Clouds,dailyrainin,SoftwareType,DateUTC
2013-08-19 00:01:00,65.9,64.4,30.10,NW,316,1.0,1.0,95,0.00,,,0.00,WUHU216DAVISVP2,2013-08-19 05:01:00,
2013-08-19 00:06:00,66.0,64.5,30.10,NW,319,0.0,1.0,95,0.00,,,0.00,WUHU216DAVISVP2,2013-08-19 05:06:00,
2013-08-19 00:11:00,65.9,64.4,30.10,NW,319,1.0,1.0,95,0.00,,,0.00,WUHU216DAVISVP2,2013-08-19 05:11:00,
2013-08-19 00:16:00,65.9,64.7,30.10,NW,319,0.0,1.0,96,0.00,,,0.00,WUHU216DAVISVP2,2013-08-19 05:16:00,
2013-08-19 00:21:00,65.9,64.7,30.10,NW,319,0.0,1.0,96,0.00,,,0.00,WUHU216DAVISVP2,2013-08-19 05:21:00,
2013-08-19 00:26:00,65.9,64.7,30.10,NW,319,0.0,1.0,96,0.00,,,0.00,WUHU216DAVISVP2,2013-08-19 05:26:00,
2013-08-19 00:31:00,65.4,63.9,30.10,SSW,212,1.0,2.0,95,0.00,,,0.00,WUHU216DAVISVP2,2013-08-19 05:31:00,
2013-08-19 00:36:00,65.1,63.6,30.10,SSW,212,0.0,2.0,95,0.00,,,0.00,WUHU216DAVISVP2,2013-08-19 05:36:00,
2013-08-19 00:41:00,64.9,63.4,30.10,SSW,212,0.0,1.0,95,0.00,,,0.00,WUHU216DAVISVP2,2013-08-19 05:41:00,
2013-08-19 00:46:00,64.8,63.6,30.10,SSW,212,0.0,0.0,96,0.00,,,0.00,WUHU216DAVISVP2,2013-08-19 05:46:00,
2013-08-19 00:51:00,64.7,63.5,30.10,SSW,212,0.0,0.0,96,0.00,,,0.00,WUHU216DAVISVP2,2013-08-19 05:51:00,
2013-08-19 00:56:00,64.6,63.4,30.10,SSW,212,0.0,0.0,96,0.00,,,0.00,WUHU216DAVISVP2,2013-08-19 05:56:00,
2013-08-19 01:01:00,64.6,63.4,30.10,SSW,212,0.0,0.0,96,0.00,,,0.00,WUHU216DAVISVP2,2013-08-19 06:01:00,
2013-08-19 01:06:00,64.8,63.6,30.10,SSW,212,0.0,0.0,96,0.00,,,0.00,WUHU216DAVISVP2,2013-08-19 06:06:00,
2013-08-19 01:11:00,64.7,63.5,30.09,SSW,212,0.0,0.0,96,0.00,,,0.00,WUHU216DAVISVP2,2013-08-19 06:11:00,
2013-08-19 01:16:00,64.7,63.5,30.09,SSW,212,0.0,0.0,96,0.00,,,0.00,WUHU216DAVISVP2,2013-08-19 06:16:00,
2013-08-19 01:21:00,64.5,63.3,30.09,SSW,212,0.0,0.0,96,0.00,,,0.00,WUHU216DAVISVP2,2013-08-19 06:21:00,
2013-08-19 01:26:00,64.3,63.1,30.09,SSW,212,0.0,0.0,96,0.00,,,0.00,WUHU216DAVISVP2,2013-08-19 06:26:00,
2013-08-19 01:31:00,64.1,62.9,30.09,SSW,212,0.0,0.0,96,0.00,,,0.00,WUHU216DAVISVP2,2013-08-19 06:31:00,
2013-08-19 01:36:00,64.1,62.9,30.09,SSW,212,0.0,0.0,96,0.00,,,0.00,WUHU216DAVISVP2,2013-08-19 06:36:00,
2013-08-19 01:41:00,64.1,62.9,30.09,SSW,212,0.0,0.0,96,0.00,,,0.00,WUHU216DAVISVP2,2013-08-19 06:41:00,
2013-08-19 01:46:00,64.3,63.1,30.08,SSW,212,0.0,0.0,96,0.00,,,0.00,WUHU216DAVISVP2,2013-08-19 06:46:00,
2013-08-19 01:51:00,64.4,63.2,30.09,SSW,212,0.0,0.0,96,0.00,,,0.00,WUHU216DAVISVP2,2013-08-19 06:51:00,
2013-08-19 01:56:00,64.4,63.2,30.09,SSW,212,0.0,0.0,96,0.00,,,0.00,WUHU216DAVISVP2,2013-08-19 06:56:00,
2013-08-19 02:01:00,64.4,63.2,30.09,SSW,212,0.0,0.0,96,0.00,,,0.00,WUHU216DAVISVP2,2013-08-19 07:01:00,
2013-08-19 02:06:00,64.2,63.0,30.09,SSW,212,0.0,0.0,96,0.00,,,0.00,WUHU216DAVISVP2,2013-08-19 07:06:00,
2013-08-19 02:11:00,64.1,62.9,30.08,SSW,212,0.0,0.0,96,0.00,,,0.00,WUHU216DAVISVP2,2013-08-19 07:11:00,
2013-08-19 02:16:00,64.0,62.8,30.08,SSW,212,0.0,0.0,96,0.00,,,0.00,WUHU216DAVISVP2,2013-08-19 07:16:00,
2013-08-19 02:21:00,64.1,62.9,30.08,SSW,212,0.0,0.0,96,0.00,,,0.00,WUHU216DAVISVP2,2013-08-19 07:21:00,
2013-08-19 02:26:00,63.9,62.7,30.08,SSW,212,0.0,0.0,96,0.00,,,0.00,WUHU216DAVISVP2,2013-08-19 07:26:00,
2013-08-19 02:31:00,63.7,62.5,30.08,SSW,212,0.0,0.0,96,0.00,,,0.00,WUHU216DAVISVP2,2013-08-19 07:31:00,
2013-08-19 02:36:00,63.8,62.6,30.08,NW,322,0.0,0.0,96,0.00,,,0.00,WUHU216DAVISVP2,2013-08-19 07:36:00,
2013-08-19 02:41:00,63.6,62.4,30.08,NW,323,0.0,0.0,96,0.00,,,0.00,WUHU216DAVISVP2,2013-08-19 07:41:00,
2013-08-19 02:46:00,63.7,62.8,30.08,NW,323,0.0,0.0,97,0.00,,,0.00,WUHU216DAVISVP2,2013-08-19 07:46:00,
2013-08-19 02:51:00,63.4,62.2,30.08,NW,323,0.0,0.0,96,0.00,,,0.00,WUHU216DAVISVP2,2013-08-19 07:51:00,
2013-08-19 02:56:00,63.4,62.5,30.08,NW,323,0.0,0.0,97,0.00,,,0.00,WUHU216DAVISVP2,2013-08-19 07:56:00,
2013-08-19 03:01:00,63.2,62.0,30.08,NW,323,0.0,0.0,96,0.00,,,0.00,WUHU216DAVISVP2,2013-08-19 08:01:00,
2013-08-19 03:06:00,62.8,61.6,30.08,NW,323,0.0,0.0,96,0.00,,,0.00,WUHU216DAVISVP2,2013-08-19 08:06:00,
2013-08-19 03:11:00,63.0,62.1,30.09,NW,323,0.0,0.0,97,0.00,,,0.00,WUHU216DAVISVP2,2013-08-19 08:11:00,
2013-08-19 03:16:00,63.3,62.4,30.09,NW,323,0.0,0.0,97,0.00,,,0.00,WUHU216DAVISVP2,2013-08-19 08:16:00,
2013-08-19 03:21:00,63.3,62.4,30.09,NW,323,0.0,0.0,97,0.00,,,0.00,WUHU216DAVISVP2,2013-08-19 08:21:00,
2013-08-19 03:26:00,63.1,62.2,30.09,NW,323,0.0,0.0,97,0.00,,,0.00,WUHU216DAVISVP2,2013-08-19 08:26:00,
2013-08-19 03:31:00,63.6,62.7,30.09,NW,323,0.0,0.0,97,0.00,,,0.00,WUHU216DAVISVP2,2013-08-19 08:31:00,
2013-08-19 03:36:00,63.6,62.7,30.09,NW,322,0.0,0.0,97,0.00,,,0.00,WUHU216DAVISVP2,2013-08-19 08:36:00,
2013-08-19 03:41:00,63.7,62.8,30.09,NW,323,0.0,0.0,97,0.00,,,0.00,WUHU216DAVISVP2,2013-08-19 08:41:00,
2013-08-19 03:46:00,63.4,62.5,30.08,NW,323,0.0,0.0,97,0.00,,,0.00,WUHU216DAVISVP2,2013-08-19 08:46:00,
2013-08-19 03:51:00,63.5,62.6,30.09,NW,323,0.0,0.0,97,0.00,,,0.00,WUHU216DAVISVP2,2013-08-19 08:51:00,
2013-08-19 03:56:00,63.2,62.3,30.09,NW,323,0.0,0.0,97,0.00,,,0.00,WUHU216DAVISVP2,2013-08-19 08:56:00,
2013-08-19 04:01:00,63.4,62.5,30.09,NW,323,0.0,0.0,97,0.00,,,0.00,WUHU216DAVISVP2,2013-08-19 09:01:00,
2013-08-19 04:06:00,62.8,61.6,30.08,NW,323,0.0,0.0,96,0.00,,,0.00,WUHU216DAVISVP2,2013-08-19 09:06:00,
2013-08-19 04:11:00,62.6,61.7,30.08,NW,323,0.0,0.0,97,0.00,,,0.00,WUHU216DAVISVP2,2013-08-19 09:11:00,
2013-08-19 04:16:00,63.5,62.6,30.08,NW,323,0.0,0.0,97,0.00,,,0.00,WUHU216DAVISVP2,2013-08-19 09:16:00,
2013-08-19 04:21:00,63.8,62.9,30.08,NW,323,0.0,0.0,97,0.00,,,0.00,WUHU216DAVISVP2,2013-08-19 09:21:00,
2013-08-19 04:26:00,63.7,62.8,30.09,NW,323,0.0,0.0,97,0.00,,,0.00,WUHU216DAVISVP2,2013-08-19 09:26:00,
2013-08-19 04:31:00,63.7,62.8,30.09,NW,323,0.0,0.0,97,0.00,,,0.00,WUHU216DAVISVP2,2013-08-19 09:31:00,
2013-08-19 04:36:00,63.6,62.7,30.08,NW,323,0.0,0.0,97,0.00,,,0.00,WUHU216DAVISVP2,2013-08-19 09:36:00,
2013-08-19 04:41:00,63.2,62.3,30.08,NW,323,0.0,0.0,97,0.00,,,0.00,WUHU216DAVISVP2,2013-08-19 09:41:00,
2013-08-19 04:46:00,63.4,62.5,30.09,NW,324,0.0,0.0,97,0.00,,,0.00,WUHU216DAVISVP2,2013-08-19 09:46:00,
2013-08-19 04:51:00,63.6,62.7,30.09,NW,324,0.0,0.0,97,0.00,,,0.00,WUHU216DAVISVP2,2013-08-19 09:51:00,
2013-08-19 04:56:00,63.4,62.5,30.09,NW,324,0.0,0.0,97,0.00,,,0.00,WUHU216DAVISVP2,2013-08-19 09:56:00,
2013-08-19 05:01:00,63.3,62.4,30.09,NW,324,0.0,0.0,97,0.00,,,0.00,WUHU216DAVISVP2,2013-08-19 10:01:00,
2013-08-19 05:06:00,62.9,62.0,30.09,NW,324,0.0,0.0,97,0.00,,,0.00,WUHU216DAVISVP2,2013-08-19 10:06:00,
2013-08-19 05:11:00,62.6,61.7,30.09,NW,324,0.0,0.0,97,0.00,,,0.00,WUHU216DAVISVP2,2013-08-19 10:11:00,
2013-08-19 05:16:00,62.3,61.4,30.09,NW,324,0.0,0.0,97,0.00,,,0.00,WUHU216DAVISVP2,2013-08-19 10:16:00,
2013-08-19 05:21:00,62.0,61.1,30.09,NW,324,0.0,0.0,97,0.00,,,0.00,WUHU216DAVISVP2,2013-08-19 10:21:00,
2013-08-19 05:26:00,61.6,60.4,30.09,NW,323,0.0,0.0,96,0.00,,,0.00,WUHU216DAVISVP2,2013-08-19 10:26:00,
2013-08-19 05:31:00,61.3,60.1,30.09,NW,323,0.0,0.0,96,0.00,,,0.00,WUHU216DAVISVP2,2013-08-19 10:31:00,
2013-08-19 05:36:00,61.3,60.4,30.09,NW,323,0.0,0.0,97,0.00,,,0.00,WUHU216DAVISVP2,2013-08-19 10:36:00,
2013-08-19 05:41:00,61.2,60.3,30.09,NW,323,0.0,0.0,97,0.00,,,0.00,WUHU216DAVISVP2,2013-08-19 10:41:00,
2013-08-19 05:46:00,61.1,60.2,30.09,NW,323,0.0,0.0,97,0.00,,,0.00,WUHU216DAVISVP2,2013-08-19 10:46:00,
2013-08-19 05:51:00,61.1,60.2,30.10,NW,323,0.0,0.0,97,0.00,,,0.00,WUHU216DAVISVP2,2013-08-19 10:51:00,
2013-08-19 05:56:00,61.3,60.4,30.10,NW,323,0.0,0.0,97,0.00,,,0.00,WUHU216DAVISVP2,2013-08-19 10:56:00,
2013-08-19 06:01:00,61.3,60.4,30.10,NW,323,0.0,0.0,97,0.00,,,0.00,WUHU216DAVISVP2,2013-08-19 11:01:00,
2013-08-19 06:06:00,61.3,60.4,30.10,NW,323,0.0,0.0,97,0.00,,,0.00,WUHU216DAVISVP2,2013-08-19 11:06:00,
2013-08-19 06:11:00,61.1,60.2,30.10,NW,323,0.0,0.0,97,0.00,,,0.00,WUHU216DAVISVP2,2013-08-19 11:11:00,
2013-08-19 06:16:00,61.0,60.1,30.10,NW,323,0.0,0.0,97,0.00,,,0.00,WUHU216DAVISVP2,2013-08-19 11:16:00,
2013-08-19 06:21:00,60.9,60.0,30.10,NW,323,0.0,0.0,97,0.00,,,0.00,WUHU216DAVISVP2,2013-08-19 11:21:00,
2013-08-19 06:26:00,60.8,59.9,30.10,NW,323,0.0,0.0,97,0.00,,,0.00,WUHU216DAVISVP2,2013-08-19 11:26:00,
2013-08-19 06:31:00,60.8,59.9,30.10,NW,323,0.0,0.0,97,0.00,,,0.00,WUHU216DAVISVP2,2013-08-19 11:31:00,
2013-08-19 06:36:00,61.1,60.2,30.10,NW,323,0.0,0.0,97,0.00,,,0.00,WUHU216DAVISVP2,2013-08-19 11:36:00,
2013-08-19 06:41:00,61.3,60.4,30.10,NW,323,0.0,0.0,97,0.00,,,0.00,WUHU216DAVISVP2,2013-08-19 11:41:00,
2013-08-19 06:46:00,61.5,60.6,30.10,NW,323,0.0,0.0,97,0.00,,,0.00,WUHU216DAVISVP2,2013-08-19 11:46:00,
2013-08-19 06:51:00,61.9,61.0,30.11,NW,323,0.0,0.0,97,0.00,,,0.00,WUHU216DAVISVP2,2013-08-19 11:51:00,
2013-08-19 06:56:00,62.6,61.7,30.11,NW,323,0.0,0.0,97,0.00,,,0.00,WUHU216DAVISVP2,2013-08-19 11:56:00,
2013-08-19 07:01:00,62.8,61.9,30.11,NW,323,0.0,0.0,97,0.00,,,0.00,WUHU216DAVISVP2,2013-08-19 12:01:00,
2013-08-19 07:06:00,62.8,61.9,30.11,NW,323,0.0,0.0,97,0.00,,,0.00,WUHU216DAVISVP2,2013-08-19 12:06:00,
2013-08-19 07:11:00,63.0,62.1,30.11,NW,323,0.0,0.0,97,0.00,,,0.00,WUHU216DAVISVP2,2013-08-19 12:11:00,
2013-08-19 07:16:00,63.3,62.4,30.11,NW,323,0.0,0.0,97,0.00,,,0.00,WUHU216DAVISVP2,2013-08-19 12:16:00,
2013-08-19 07:21:00,63.6,62.4,30.11,NW,323,0.0,0.0,96,0.00,,,0.00,WUHU216DAVISVP2,2013-08-19 12:21:00,
2013-08-19 07:26:00,64.1,63.2,30.11,NW,323,0.0,0.0,97,0.00,,,0.00,WUHU216DAVISVP2,2013-08-19 12:26:00,
2013-08-19 07:31:00,64.7,63.5,30.11,NW,323,0.0,0.0,96,0.00,,,0.00,WUHU216DAVISVP2,2013-08-19 12:31:00,
2013-08-19 07:36:00,65.0,63.8,30.11,NW,323,0.0,0.0,96,0.00,,,0.00,WUHU216DAVISVP2,2013-08-19 12:36:00,
2013-08-19 07:41:00,65.5,64.3,30.11,NW,323,0.0,0.0,96,0.00,,,0.00,WUHU216DAVISVP2,2013-08-19 12:41:00,
2013-08-19 07:46:00,66.0,64.8,30.11,NW,323,0.0,0.0,96,0.00,,,0.00,WUHU216DAVISVP2,2013-08-19 12:46:00,
2013-08-19 07:51:00,66.6,65.4,30.11,NW,323,0.0,0.0,96,0.00,,,0.00,WUHU216DAVISVP2,2013-08-19 12:51:00,
2013-08-19 07:56:00,67.1,65.6,30.11,NW,323,0.0,0.0,95,0.00,,,0.00,WUHU216DAVISVP2,2013-08-19 12:56:00,
2013-08-19 08:01:00,68.0,66.5,30.11,North,11,0.0,0.0,95,0.00,,,0.00,WUHU216DAVISVP2,2013-08-19 13:01:00,
2013-08-19 08:06:00,69.3,67.2,30.12,ESE,107,0.0,0.0,93,0.00,,,0.00,WUHU216DAVISVP2,2013-08-19 13:06:00,
2013-08-19 08:11:00,70.4,66.4,30.12,ENE,60,0.0,0.0,87,0.00,,,0.00,WUHU216DAVISVP2,2013-08-19 13:11:00,
2013-08-19 08:16:00,70.6,65.2,30.12,ENE,73,2.0,4.0,83,0.00,,,0.00,WUHU216DAVISVP2,2013-08-19 13:16:00,
2013-08-19 08:21:00,70.8,65.4,30.12,ENE,65,2.0,4.0,83,0.00,,,0.00,WUHU216DAVISVP2,2013-08-19 13:21:00,
2013-08-19 08:26:00,71.5,66.1,30.12,ENE,74,1.0,4.0,83,0.00,,,0.00,WUHU216DAVISVP2,2013-08-19 13:26:00,
2013-08-19 08:31:00,72.2,66.0,30.12,ESE,103,0.0,3.0,81,0.00,,,0.00,WUHU216DAVISVP2,2013-08-19 13:31:00,
2013-08-19 08:36:00,72.8,66.6,30.12,East,85,1.0,3.0,81,0.00,,,0.00,WUHU216DAVISVP2,2013-08-19 13:36:00,
2013-08-19 08:41:00,72.6,66.1,30.12,East,82,0.0,4.0,80,0.00,,,0.00,WUHU216DAVISVP2,2013-08-19 13:41:00,
2013-08-19 08:46:00,72.5,66.0,30.12,East,89,3.0,4.0,80,0.00,,,0.00,WUHU216DAVISVP2,2013-08-19 13:46:00,
2013-08-19 08:51:00,72.9,66.0,30.12,East,82,0.0,3.0,79,0.00,,,0.00,WUHU216DAVISVP2,2013-08-19 13:51:00,
2013-08-19 08:56:00,73.5,66.3,30.12,ENE,69,2.0,3.0,78,0.00,,,0.00,WUHU216DAVISVP2,2013-08-19 13:56:00,
2013-08-19 09:01:00,73.4,66.6,30.12,ENE,69,0.0,2.0,79,0.00,,,0.00,WUHU216DAVISVP2,2013-08-19 14:01:00,
2013-08-19 09:06:00,74.6,66.7,30.12,ENE,69,0.0,2.0,76,0.00,,,0.00,WUHU216DAVISVP2,2013-08-19 14:06:00,
2013-08-19 09:11:00,75.2,66.9,30.12,ENE,67,0.0,2.0,75,0.00,,,0.00,WUHU216DAVISVP2,2013-08-19 14:11:00,
2013-08-19 09:16:00,75.3,67.4,30.12,East,82,1.0,2.0,76,0.00,,,0.00,WUHU216DAVISVP2,2013-08-19 14:16:00,
2013-08-19 09:21:00,75.6,66.9,30.12,SW,235,0.0,2.0,74,0.00,,,0.00,WUHU216DAVISVP2,2013-08-19 14:21:00,
2013-08-19 09:26:00,75.9,67.6,30.12,SW,235,0.0,2.0,75,0.00,,,0.00,WUHU216DAVISVP2,2013-08-19 14:26:00,
2013-08-19 09:31:00,76.2,67.5,30.12,NE,50,1.0,2.0,74,0.00,,,0.00,WUHU216DAVISVP2,2013-08-19 14:31:00,
2013-08-19 09:36:00,76.8,67.7,30.12,WNW,302,1.0,3.0,73,0.00,,,0.00,WUHU216DAVISVP2,2013-08-19 14:36:00,
2013-08-19 09:41:00,76.9,67.0,30.12,NE,56,4.0,4.0,71,0.00,,,0.00,WUHU216DAVISVP2,2013-08-19 14:41:00,
2013-08-19 09:46:00,76.2,66.5,30.12,ENE,67,4.0,5.0,72,0.00,,,0.00,WUHU216DAVISVP2,2013-08-19 14:46:00,
2013-08-19 09:51:00,76.3,66.6,30.12,ENE,72,2.0,5.0,72,0.00,,,0.00,WUHU216DAVISVP2,2013-08-19 14:51:00,
2013-08-19 09:56:00,77.1,67.0,30.12,ENE,58,2.0,4.0,71,0.00,,,0.00,WUHU216DAVISVP2,2013-08-19 14:56:00,
2013-08-19 10:01:00,78.3,67.5,30.13,ESE,115,0.0,2.0,69,0.00,,,0.00,WUHU216DAVISVP2,2013-08-19 15:01:00,
2013-08-19 10:06:00,78.9,68.1,30.12,SW,226,1.0,2.0,69,0.00,,,0.00,WUHU216DAVISVP2,2013-08-19 15:06:00,
2013-08-19 10:11:00,78.7,68.3,30.12,SSW,208,2.0,3.0,70,0.00,,,0.00,WUHU216DAVISVP2,2013-08-19 15:11:00,
2013-08-19 10:16:00,78.6,67.4,30.12,East,79,1.0,3.0,68,0.00,,,0.00,WUHU216DAVISVP2,2013-08-19 15:16:00,
2013-08-19 10:21:00,79.4,68.1,30.13,ENE,58,3.0,3.0,68,0.00,,,0.00,WUHU216DAVISVP2,2013-08-19 15:21:00,
2013-08-19 10:26:00,79.6,67.5,30.13,North,360,0.0,3.0,66,0.00,,,0.00,WUHU216DAVISVP2,2013-08-19 15:26:00,
2013-08-19 10:31:00,80.0,68.3,30.12,SW,231,1.0,3.0,67,0.00,,,0.00,WUHU216DAVISVP2,2013-08-19 15:31:00,
2013-08-19 10:36:00,80.3,68.6,30.12,SW,224,0.0,3.0,67,0.00,,,0.00,WUHU216DAVISVP2,2013-08-19 15:36:00,
2013-08-19 10:41:00,80.1,68.0,30.12,ENE,72,3.0,3.0,66,0.00,,,0.00,WUHU216DAVISVP2,2013-08-19 15:41:00,
2013-08-19 10:46:00,80.5,68.1,30.12,ENE,59,2.0,3.0,66,0.00,,,0.00,WUHU216DAVISVP2,2013-08-19 15:46:00,
2013-08-19 10:51:00,80.4,68.0,30.12,NNW,336,1.0,4.0,66,0.00,,,0.00,WUHU216DAVISVP2,2013-08-19 15:51:00,
2013-08-19 10:56:00,79.8,66.8,30.12,ENE,59,4.0,7.0,64,0.00,,,0.00,WUHU216DAVISVP2,2013-08-19 15:56:00,
2013-08-19 11:01:00,79.4,66.8,30.12,ENE,72,3.0,7.0,65,0.00,,,0.00,WUHU216DAVISVP2,2013-08-19 16:01:00,
2013-08-19 11:06:00,79.4,67.7,30.12,NE,36,0.0,5.0,67,0.00,,,0.00,WUHU216DAVISVP2,2013-08-19 16:06:00,
2013-08-19 11:11:00,80.5,67.9,30.11,East,79,2.0,5.0,65,0.00,,,0.00,WUHU216DAVISVP2,2013-08-19 16:11:00,
2013-08-19 11:16:00,80.3,68.1,30.11,ENE,68,2.0,7.0,66,0.00,,,0.00,WUHU216DAVISVP2,2013-08-19 16:16:00,
2013-08-19 11:21:00,80.3,67.3,30.11,ENE,71,3.0,7.0,64,0.00,,,0.00,WUHU216DAVISVP2,2013-08-19 16:21:00,
2013-08-19 11:26:00,80.4,68.7,30.11,ENE,65,6.0,6.0,67,0.00,,,0.00,WUHU216DAVISVP2,2013-08-19 16:26:00,
2013-08-19 11:31:00,80.6,68.0,30.11,NW,326,1.0,6.0,65,0.00,,,0.00,WUHU216DAVISVP2,2013-08-19 16:31:00,
2013-08-19 11:36:00,81.1,68.5,30.11,SE,129,1.0,4.0,65,0.00,,,0.00,WUHU216DAVISVP2,2013-08-19 16:36:00,
2013-08-19 11:41:00,81.4,67.4,30.11,ESE,110,3.0,5.0,62,0.00,,,0.00,WUHU216DAVISVP2,2013-08-19 16:41:00,
2013-08-19 11:46:00,81.3,66.8,30.10,ENE,66,3.0,7.0,61,0.00,,,0.00,WUHU216DAVISVP2,2013-08-19 16:46:00,
2013-08-19 11:51:00,81.4,68.1,30.10,NE,44,1.0,7.0,64,0.00,,,0.00,WUHU216DAVISVP2,2013-08-19 16:51:00,
2013-08-19 11:56:00,81.5,67.2,30.10,ENE,63,4.0,7.0,62,0.00,,,0.00,WUHU216DAVISVP2,2013-08-19 16:56:00,
2013-08-19 12:01:00,81.2,67.4,30.10,NE,51,6.0,7.0,63,0.00,,,0.00,WUHU216DAVISVP2,2013-08-19 17:01:00,
2013-08-19 12:06:00,81.0,66.8,30.10,NE,53,3.0,6.0,62,0.00,,,0.00,WUHU216DAVISVP2,2013-08-19 17:06:00,
2013-08-19 12:11:00,81.6,67.8,30.10,ENE,69,4.0,7.0,63,0.00,,,0.00,WUHU216DAVISVP2,2013-08-19 17:11:00,
2013-08-19 12:16:00,81.4,68.5,30.10,ENE,65,4.0,8.0,65,0.00,,,0.00,WUHU216DAVISVP2,2013-08-19 17:16:00,
2013-08-19 12:21:00,81.2,67.7,30.10,NE,49,3.0,8.0,63,0.00,,,0.00,WUHU216DAVISVP2,2013-08-19 17:21:00,
2013-08-19 12:26:00,81.3,68.2,30.10,NE,37,0.0,8.0,64,0.00,,,0.00,WUHU216DAVISVP2,2013-08-19 17:26:00,
2013-08-19 12:31:00,81.7,67.7,30.10,SE,127,1.0,7.0,62,0.00,,,0.00,WUHU216DAVISVP2,2013-08-19 17:31:00,
2013-08-19 12:36:00,82.7,68.1,30.09,North,2,0.0,7.0,61,0.00,,,0.00,WUHU216DAVISVP2,2013-08-19 17:36:00,
2013-08-19 12:41:00,82.9,67.8,30.09,ENE,64,3.0,6.0,60,0.00,,,0.00,WUHU216DAVISVP2,2013-08-19 17:41:00,
2013-08-19 12:46:00,82.2,67.2,30.09,ENE,60,3.0,6.0,60,0.00,,,0.00,WUHU216DAVISVP2,2013-08-19 17:46:00,
2013-08-19 12:51:00,82.0,67.0,30.09,NE,37,3.0,7.0,60,0.00,,,0.00,WUHU216DAVISVP2,2013-08-19 17:51:00,
2013-08-19 12:56:00,82.0,68.4,30.09,East,101,0.0,7.0,63,0.00,,,0.00,WUHU216DAVISVP2,2013-08-19 17:56:00,
2013-08-19 13:01:00,82.0,67.0,30.08,ENE,71,5.0,9.0,60,0.00,,,0.00,WUHU216DAVISVP2,2013-08-19 18:01:00,
2013-08-19 13:06:00,81.8,68.2,30.08,ENE,75,6.0,9.0,63,0.00,,,0.00,WUHU216DAVISVP2,2013-08-19 18:06:00,
2013-08-19 13:11:00,81.7,67.2,30.08,East,85,5.0,7.0,61,0.00,,,0.00,WUHU216DAVISVP2,2013-08-19 18:11:00,
2013-08-19 13:16:00,81.7,67.7,30.08,ENE,58,5.0,6.0,62,0.00,,,0.00,WUHU216DAVISVP2,2013-08-19 18:16:00,
2013-08-19 13:21:00,82.2,68.3,30.08,SW,228,2.0,6.0,63,0.00,,,0.00,WUHU216DAVISVP2,2013-08-19 18:21:00,
2013-08-19 13:26:00,83.2,67.9,30.08,NE,56,1.0,5.0,60,0.00,,,0.00,WUHU216DAVISVP2,2013-08-19 18:26:00,
2013-08-19 13:31:00,83.2,67.4,30.08,ENE,58,7.0,8.0,59,0.00,,,0.00,WUHU216DAVISVP2,2013-08-19 18:31:00,
2013-08-19 13:36:00,83.0,68.9,30.08,NE,38,3.0,8.0,62,0.00,,,0.00,WUHU216DAVISVP2,2013-08-19 18:36:00,
2013-08-19 13:41:00,82.6,67.1,30.08,ENE,70,6.0,9.0,59,0.00,,,0.00,WUHU216DAVISVP2,2013-08-19 18:41:00,
2013-08-19 13:46:00,82.0,67.0,30.08,ENE,74,4.0,9.0,60,0.00,,,0.00,WUHU216DAVISVP2,2013-08-19 18:46:00,
2013-08-19 13:50:00,81.5,67.5,30.08,ENE,70,1.0,7.0,62,0.00,,,0.00,WUHU216DAVISVP2,2013-08-19 18:50:00,
2013-08-19 13:55:00,82.3,68.7,30.08,ENE,73,1.0,6.0,63,0.00,,,0.00,WUHU216DAVISVP2,2013-08-19 18:55:00,
2013-08-19 14:00:00,82.9,67.3,30.08,East,98,5.0,7.0,59,0.00,,,0.00,WUHU216DAVISVP2,2013-08-19 19:00:00,
2013-08-19 14:05:00,82.8,67.7,30.08,ENE,66,4.0,7.0,60,0.00,,,0.00,WUHU216DAVISVP2,2013-08-19 19:05:00,
2013-08-19 14:10:00,82.8,66.7,30.08,NE,46,1.0,6.0,58,0.00,,,0.00,WUHU216DAVISVP2,2013-08-19 19:10:00,
2013-08-19 14:15:00,82.8,67.7,30.08,ENE,70,4.0,6.0,60,0.00,,,0.00,WUHU216DAVISVP2,2013-08-19 19:15:00,
2013-08-19 14:20:00,82.3,68.2,30.08,ENE,60,4.0,6.0,62,0.00,,,0.00,WUHU216DAVISVP2,2013-08-19 19:20:00,
2013-08-19 14:25:00,82.3,67.3,30.08,East,83,2.0,6.0,60,0.00,,,0.00,WUHU216DAVISVP2,2013-08-19 19:25:00,
2013-08-19 14:30:00,82.7,69.1,30.08,ENE,71,1.0,6.0,63,0.00,,,0.00,WUHU216DAVISVP2,2013-08-19 19:30:00,
2013-08-19 14:35:00,82.7,66.7,30.08,ENE,68,2.0,5.0,58,0.00,,,0.00,WUHU216DAVISVP2,2013-08-19 19:35:00,
2013-08-19 14:40:00,82.8,66.5,30.08,East,86,0.0,5.0,58,0.00,,,0.00,WUHU216DAVISVP2,2013-08-19 19:40:00,
2013-08-19 14:45:00,83.5,66.7,30.08,East,82,2.0,5.0,57,0.00,,,0.00,WUHU216DAVISVP2,2013-08-19 19:45:00,
2013-08-19 14:50:00,82.8,66.5,30.08,NE,48,3.0,6.0,58,0.00,,,0.00,WUHU216DAVISVP2,2013-08-19 19:50:00,
2013-08-19 14:55:00,82.2,66.7,30.08,ENE,73,5.0,6.0,59,0.00,,,0.00,WUHU216DAVISVP2,2013-08-19 19:55:00,
2013-08-19 15:00:00,82.0,67.5,30.07,ENE,58,3.0,6.0,61,0.00,,,0.00,WUHU216DAVISVP2,2013-08-19 20:00:00,
2013-08-19 15:05:00,81.7,67.2,30.07,ENE,66,2.0,4.0,61,0.00,,,0.00,WUHU216DAVISVP2,2013-08-19 20:05:00,
2013-08-19 15:10:00,81.7,67.2,30.07,NE,54,4.0,4.0,61,0.00,,,0.00,WUHU216DAVISVP2,2013-08-19 20:10:00,
2013-08-19 15:15:00,81.4,66.9,30.07,ENE,62,1.0,6.0,61,0.00,,,0.00,WUHU216DAVISVP2,2013-08-19 20:15:00,
2013-08-19 15:20:00,81.6,67.6,30.07,ENE,63,0.0,6.0,62,0.00,,,0.00,WUHU216DAVISVP2,2013-08-19 20:20:00,
2013-08-19 15:25:00,82.3,68.2,30.06,ESE,122,0.0,1.0,62,0.00,,,0.00,WUHU216DAVISVP2,2013-08-19 20:25:00,
2013-08-19 15:30:00,83.7,67.6,30.06,ESE,113,0.0,1.0,58,0.00,,,0.00,WUHU216DAVISVP2,2013-08-19 20:30:00,
2013-08-19 15:35:00,84.4,68.3,30.06,NE,56,2.0,4.0,58,0.00,,,0.00,WUHU216DAVISVP2,2013-08-19 20:35:00,
2013-08-19 15:40:00,84.3,67.1,30.06,ENE,68,2.0,4.0,56,0.00,,,0.00,WUHU216DAVISVP2,2013-08-19 20:40:00,
2013-08-19 15:45:00,83.9,69.3,30.06,ESE,106,0.0,4.0,61,0.00,,,0.00,WUHU216DAVISVP2,2013-08-19 20:45:00,
2013-08-19 15:50:00,84.9,67.7,30.06,ENE,68,2.0,4.0,56,0.00,,,0.00,WUHU216DAVISVP2,2013-08-19 20:50:00,
2013-08-19 15:55:00,84.6,68.4,30.05,SE,127,0.0,6.0,58,0.00,,,0.00,WUHU216DAVISVP2,2013-08-19 20:55:00,
2013-08-19 16:00:00,85.2,69.0,30.05,ENE,72,1.0,6.0,58,0.00,,,0.00,WUHU216DAVISVP2,2013-08-19 21:00:00,
2013-08-19 16:05:00,84.6,68.4,30.05,ESE,111,4.0,5.0,58,0.00,,,0.00,WUHU216DAVISVP2,2013-08-19 21:05:00,
2013-08-19 16:10:00,84.5,67.6,30.05,East,80,2.0,5.0,57,0.00,,,0.00,WUHU216DAVISVP2,2013-08-19 21:10:00,
2013-08-19 16:15:00,84.7,67.3,30.05,ESE,119,0.0,4.0,56,0.00,,,0.00,WUHU216DAVISVP2,2013-08-19 21:15:00,
2013-08-19 16:20:00,84.4,67.2,30.05,East,80,1.0,5.0,56,0.00,,,0.00,WUHU216DAVISVP2,2013-08-19 21:20:00,
2013-08-19 16:25:00,84.1,66.9,30.05,East,91,1.0,5.0,56,0.00,,,0.00,WUHU216DAVISVP2,2013-08-19 21:25:00,
2013-08-19 16:30:00,83.7,67.1,30.05,SE,128,0.0,4.0,57,0.00,,,0.00,WUHU216DAVISVP2,2013-08-19 21:30:00,
2013-08-19 16:35:00,84.1,67.5,30.04,ENE,59,0.0,4.0,57,0.00,,,0.00,WUHU216DAVISVP2,2013-08-19 21:35:00,
2013-08-19 16:40:00,84.1,67.5,30.04,ENE,74,2.0,4.0,57,0.00,,,0.00,WUHU216DAVISVP2,2013-08-19 21:40:00,
2013-08-19 16:45:00,84.1,68.0,30.04,East,83,0.0,5.0,58,0.00,,,0.00,WUHU216DAVISVP2,2013-08-19 21:45:00,
2013-08-19 16:50:00,83.9,67.3,30.04,NE,55,3.0,5.0,57,0.00,,,0.00,WUHU216DAVISVP2,2013-08-19 21:50:00,
2013-08-19 16:55:00,83.9,67.3,30.04,ENE,72,2.0,6.0,57,0.00,,,0.00,WUHU216DAVISVP2,2013-08-19 21:55:00,
2013-08-19 17:00:00,84.7,68.0,30.04,ENE,69,1.0,6.0,57,0.00,,,0.00,WUHU216DAVISVP2,2013-08-19 22:00:00,
2013-08-19 17:05:00,84.3,68.7,30.04,ENE,60,7.0,10.0,59,0.00,,,0.00,WUHU216DAVISVP2,2013-08-19 22:05:00,
2013-08-19 17:10:00,84.3,68.9,30.04,ESE,110,1.0,10.0,60,0.00,,,0.00,WUHU216DAVISVP2,2013-08-19 22:10:00,
2013-08-19 17:15:00,83.5,68.2,30.04,ENE,77,3.0,7.0,60,0.00,,,0.00,WUHU216DAVISVP2,2013-08-19 22:15:00,
2013-08-19 17:20:00,82.9,68.8,30.04,East,80,0.0,5.0,62,0.00,,,0.00,WUHU216DAVISVP2,2013-08-19 22:20:00,
2013-08-19 17:25:00,83.3,68.7,30.04,ESE,113,1.0,3.0,61,0.00,,,0.00,WUHU216DAVISVP2,2013-08-19 22:25:00,
2013-08-19 17:30:00,83.3,68.7,30.04,East,94,0.0,2.0,61,0.00,,,0.00,WUHU216DAVISVP2,2013-08-19 22:30:00,
2013-08-19 17:35:00,83.4,68.8,30.04,East,91,0.0,2.0,61,0.00,,,0.00,WUHU216DAVISVP2,2013-08-19 22:35:00,
2013-08-19 17:40:00,83.4,68.3,30.04,East,79,1.0,2.0,60,0.00,,,0.00,WUHU216DAVISVP2,2013-08-19 22:40:00,
2013-08-19 17:45:00,83.7,68.6,30.04,ESE,110,0.0,2.0,60,0.00,,,0.00,WUHU216DAVISVP2,2013-08-19 22:45:00,
2013-08-19 17:50:00,83.5,67.9,30.03,ESE,108,0.0,1.0,59,0.00,,,0.00,WUHU216DAVISVP2,2013-08-19 22:50:00,
2013-08-19 17:55:00,83.5,68.4,30.03,ESE,104,0.0,1.0,60,0.00,,,0.00,WUHU216DAVISVP2,2013-08-19 22:55:00,
2013-08-19 18:00:00,83.3,68.2,30.03,ESE,104,0.0,1.0,60,0.00,,,0.00,WUHU216DAVISVP2,2013-08-19 23:00:00,
2013-08-19 18:05:00,83.2,69.1,30.03,ESE,104,0.0,1.0,62,0.00,,,0.00,WUHU216DAVISVP2,2013-08-19 23:05:00,
2013-08-19 18:10:00,82.4,68.3,30.03,ENE,65,1.0,2.0,62,0.00,,,0.00,WUHU216DAVISVP2,2013-08-19 23:10:00,
2013-08-19 18:15:00,81.9,68.3,30.03,ENE,65,0.0,2.0,63,0.00,,,0.00,WUHU216DAVISVP2,2013-08-19 23:15:00,
2013-08-19 18:20:00,81.6,67.8,30.03,ENE,65,1.0,1.0,63,0.00,,,0.00,WUHU216DAVISVP2,2013-08-19 23:20:00,
2013-08-19 18:25:00,81.3,68.7,30.02,ENE,65,0.0,1.0,65,0.00,,,0.00,WUHU216DAVISVP2,2013-08-19 23:25:00,
2013-08-19 18:30:00,81.4,69.2,30.03,ENE,65,0.0,1.0,66,0.00,,,0.00,WUHU216DAVISVP2,2013-08-19 23:30:00,
2013-08-19 18:35:00,81.4,69.4,30.02,ENE,65,0.0,1.0,67,0.00,,,0.00,WUHU216DAVISVP2,2013-08-19 23:35:00,
2013-08-19 18:40:00,81.1,68.7,30.02,ENE,65,1.0,1.0,66,0.00,,,0.00,WUHU216DAVISVP2,2013-08-19 23:40:00,
2013-08-19 18:45:00,80.8,69.2,30.03,ENE,65,2.0,2.0,68,0.00,,,0.00,WUHU216DAVISVP2,2013-08-19 23:45:00,
2013-08-19 18:50:00,80.6,69.5,30.03,ENE,65,1.0,2.0,69,0.00,,,0.00,WUHU216DAVISVP2,2013-08-19 23:50:00,
2013-08-19 18:55:00,80.5,69.8,30.02,ENE,64,1.0,2.0,70,0.00,,,0.00,WUHU216DAVISVP2,2013-08-19 23:55:00,
2013-08-19 19:00:00,80.2,69.9,30.02,ENE,64,1.0,2.0,71,0.00,,,0.00,WUHU216DAVISVP2,2013-08-20 00:00:00,
2013-08-19 19:05:00,80.0,70.0,30.02,ENE,65,1.0,2.0,71,0.00,,,0.00,WUHU216DAVISVP2,2013-08-20 00:05:00,
2013-08-19 19:10:00,79.7,70.1,30.02,ENE,58,2.0,2.0,72,0.00,,,0.00,WUHU216DAVISVP2,2013-08-20 00:10:00,
2013-08-19 19:15:00,79.4,70.2,30.03,ENE,58,1.0,2.0,73,0.00,,,0.00,WUHU216DAVISVP2,2013-08-20 00:15:00,
2013-08-19 19:20:00,79.1,69.9,30.03,ENE,58,1.0,2.0,73,0.00,,,0.00,WUHU216DAVISVP2,2013-08-20 00:20:00,
2013-08-19 19:25:00,78.8,70.0,30.03,ENE,58,0.0,1.0,74,0.00,,,0.00,WUHU216DAVISVP2,2013-08-20 00:25:00,
2013-08-19 19:30:00,78.6,69.8,30.03,ENE,58,1.0,1.0,74,0.00,,,0.00,WUHU216DAVISVP2,2013-08-20 00:30:00,
2013-08-19 19:35:00,78.4,69.6,30.03,ENE,58,0.0,1.0,74,0.00,,,0.00,WUHU216DAVISVP2,2013-08-20 00:35:00,
2013-08-19 19:40:00,78.1,69.7,30.03,ENE,58,0.0,1.0,75,0.00,,,0.00,WUHU216DAVISVP2,2013-08-20 00:40:00,
2013-08-19 19:45:00,77.6,70.0,30.03,ENE,58,0.0,0.0,77,0.00,,,0.00,WUHU216DAVISVP2,2013-08-20 00:45:00,
2013-08-19 19:50:00,76.9,70.0,30.03,ENE,58,0.0,0.0,79,0.00,,,0.00,WUHU216DAVISVP2,2013-08-20 00:50:00,
2013-08-19 19:55:00,75.9,69.7,30.03,NE,56,0.0,0.0,81,0.00,,,0.00,WUHU216DAVISVP2,2013-08-20 00:55:00,
2013-08-19 20:00:00,74.9,69.1,30.03,NE,56,0.0,0.0,82,0.00,,,0.00,WUHU216DAVISVP2,2013-08-20 01:00:00,
2013-08-19 20:05:00,74.4,69.0,30.03,NE,56,0.0,0.0,83,0.00,,,0.00,WUHU216DAVISVP2,2013-08-20 01:05:00,
2013-08-19 20:10:00,74.1,69.3,30.03,ENE,57,0.0,0.0,85,0.00,,,0.00,WUHU216DAVISVP2,2013-08-20 01:10:00,
2013-08-19 20:15:00,73.8,69.4,30.03,ENE,57,0.0,0.0,86,0.00,,,0.00,WUHU216DAVISVP2,2013-08-20 01:15:00,
2013-08-19 20:20:00,73.5,69.1,30.03,ENE,57,0.0,0.0,86,0.00,,,0.00,WUHU216DAVISVP2,2013-08-20 01:20:00,
2013-08-19 20:25:00,73.1,68.7,30.04,ENE,57,0.0,0.0,86,0.00,,,0.00,WUHU216DAVISVP2,2013-08-20 01:25:00,
2013-08-19 20:30:00,72.9,68.8,30.04,ENE,57,0.0,0.0,87,0.00,,,0.00,WUHU216DAVISVP2,2013-08-20 01:30:00,
2013-08-19 20:35:00,72.7,68.9,30.04,ENE,57,0.0,0.0,88,0.00,,,0.00,WUHU216DAVISVP2,2013-08-20 01:35:00,
2013-08-19 20:40:00,72.5,68.7,30.04,ENE,57,0.0,0.0,88,0.00,,,0.00,WUHU216DAVISVP2,2013-08-20 01:40:00,
2013-08-19 20:45:00,72.4,69.0,30.04,NE,56,0.0,0.0,89,0.00,,,0.00,WUHU216DAVISVP2,2013-08-20 01:45:00,
2013-08-19 20:50:00,72.3,68.9,30.04,ENE,57,0.0,0.0,89,0.00,,,0.00,WUHU216DAVISVP2,2013-08-20 01:50:00,
2013-08-19 20:55:00,72.3,69.2,30.04,ENE,57,0.0,0.0,90,0.00,,,0.00,WUHU216DAVISVP2,2013-08-20 01:55:00,
2013-08-19 21:00:00,72.3,68.9,30.05,ENE,57,0.0,0.0,89,0.00,,,0.00,WUHU216DAVISVP2,2013-08-20 02:00:00,
2013-08-19 21:05:00,72.3,68.5,30.05,ENE,57,0.0,0.0,88,0.00,,,0.00,WUHU216DAVISVP2,2013-08-20 02:05:00,
2013-08-19 21:10:00,72.5,68.4,30.05,ENE,58,0.0,0.0,87,0.00,,,0.00,WUHU216DAVISVP2,2013-08-20 02:10:00,
2013-08-19 21:15:00,72.5,68.4,30.05,ENE,58,0.0,0.0,87,0.00,,,0.00,WUHU216DAVISVP2,2013-08-20 02:15:00,
2013-08-19 21:20:00,72.4,68.3,30.05,ENE,58,0.0,0.0,87,0.00,,,0.00,WUHU216DAVISVP2,2013-08-20 02:20:00,
2013-08-19 21:25:00,72.1,68.0,30.05,ENE,58,0.0,0.0,87,0.00,,,0.00,WUHU216DAVISVP2,2013-08-20 02:25:00,
2013-08-19 21:30:00,71.9,68.2,30.05,ENE,58,0.0,0.0,88,0.00,,,0.00,WUHU216DAVISVP2,2013-08-20 02:30:00,
2013-08-19 21:35:00,71.6,67.9,30.06,ENE,58,0.0,0.0,88,0.00,,,0.00,WUHU216DAVISVP2,2013-08-20 02:35:00,
2013-08-19 21:40:00,71.3,67.6,30.06,ENE,58,0.0,0.0,88,0.00,,,0.00,WUHU216DAVISVP2,2013-08-20 02:40:00,
2013-08-19 21:45:00,71.2,67.8,30.06,ENE,58,0.0,0.0,89,0.00,,,0.00,WUHU216DAVISVP2,2013-08-20 02:45:00,
2013-08-19 21:50:00,71.2,67.8,30.06,ENE,58,0.0,0.0,89,0.00,,,0.00,WUHU216DAVISVP2,2013-08-20 02:50:00,
2013-08-19 21:55:00,71.4,68.0,30.06,ENE,58,0.0,0.0,89,0.00,,,0.00,WUHU216DAVISVP2,2013-08-20 02:55:00,
2013-08-19 22:00:00,71.7,68.0,30.06,ENE,58,0.0,0.0,88,0.00,,,0.00,WUHU216DAVISVP2,2013-08-20 03:00:00,
2013-08-19 22:05:00,72.0,68.3,30.06,ENE,58,0.0,0.0,88,0.00,,,0.00,WUHU216DAVISVP2,2013-08-20 03:05:00,
2013-08-19 22:10:00,72.1,68.0,30.06,ENE,58,0.0,0.0,87,0.00,,,0.00,WUHU216DAVISVP2,2013-08-20 03:10:00,
2013-08-19 22:15:00,71.7,67.3,30.06,ENE,58,0.0,0.0,86,0.00,,,0.00,WUHU216DAVISVP2,2013-08-20 03:15:00,
2013-08-19 22:20:00,71.3,67.2,30.06,ENE,58,0.0,0.0,87,0.00,,,0.00,WUHU216DAVISVP2,2013-08-20 03:20:00,
2013-08-19 22:25:00,71.0,67.3,30.06,ENE,58,0.0,0.0,88,0.00,,,0.00,WUHU216DAVISVP2,2013-08-20 03:25:00,
2013-08-19 22:30:00,70.7,67.0,30.06,ENE,58,0.0,0.0,88,0.00,,,0.00,WUHU216DAVISVP2,2013-08-20 03:30:00,
2013-08-19 22:35:00,70.3,66.6,30.06,ENE,58,0.0,0.0,88,0.00,,,0.00,WUHU216DAVISVP2,2013-08-20 03:35:00,
2013-08-19 22:40:00,70.2,67.1,30.06,ENE,59,0.0,0.0,90,0.00,,,0.00,WUHU216DAVISVP2,2013-08-20 03:40:00,
2013-08-19 22:45:00,70.3,67.2,30.06,ENE,60,0.0,0.0,90,0.00,,,0.00,WUHU216DAVISVP2,2013-08-20 03:45:00,
2013-08-19 22:50:00,70.3,67.2,30.06,ENE,60,0.0,0.0,90,0.00,,,0.00,WUHU216DAVISVP2,2013-08-20 03:50:00,
2013-08-19 22:55:00,70.3,67.2,30.06,ENE,60,0.0,0.0,90,0.00,,,0.00,WUHU216DAVISVP2,2013-08-20 03:55:00,
2013-08-19 23:00:00,70.3,67.2,30.07,ENE,59,0.0,0.0,90,0.00,,,0.00,WUHU216DAVISVP2,2013-08-20 04:00:00,
2013-08-19 23:01:00,70.3,67.2,30.07,ENE,59,0.0,0.0,90,0.00,,,0.00,WUHU216DAVISVP2,2013-08-20 04:01:00,
2013-08-19 23:06:00,70.0,66.6,30.07,ENE,59,0.0,0.0,89,0.00,,,0.00,WUHU216DAVISVP2,2013-08-20 04:06:00,
2013-08-19 23:11:00,69.5,66.4,30.06,ENE,59,0.0,0.0,90,0.00,,,0.00,WUHU216DAVISVP2,2013-08-20 04:11:00,
2013-08-19 23:16:00,69.1,66.0,30.06,ENE,59,0.0,0.0,90,0.00,,,0.00,WUHU216DAVISVP2,2013-08-20 04:16:00,
2013-08-19 23:21:00,68.8,65.7,30.06,ENE,59,0.0,0.0,90,0.00,,,0.00,WUHU216DAVISVP2,2013-08-20 04:21:00,
2013-08-19 23:26:00,68.4,65.6,30.06,ENE,59,0.0,0.0,91,0.00,,,0.00,WUHU216DAVISVP2,2013-08-20 04:26:00,
2013-08-19 23:31:00,68.4,66.0,30.06,ENE,59,0.0,0.0,92,0.00,,,0.00,WUHU216DAVISVP2,2013-08-20 04:31:00,
2013-08-19 23:36:00,68.4,66.0,30.06,ENE,59,0.0,0.0,92,0.00,,,0.00,WUHU216DAVISVP2,2013-08-20 04:36:00,
2013-08-19 23:41:00,68.3,66.2,30.06,ENE,59,0.0,0.0,93,0.00,,,0.00,WUHU216DAVISVP2,2013-08-20 04:41:00,
2013-08-19 23:46:00,68.1,66.0,30.07,ENE,59,0.0,0.0,93,0.00,,,0.00,WUHU216DAVISVP2,2013-08-20 04:46:00,
2013-08-19 23:51:00,67.8,65.7,30.06,ENE,59,0.0,0.0,93,0.00,,,0.00,WUHU216DAVISVP2,2013-08-20 04:51:00,
2013-08-19 23:56:00,67.8,66.0,30.07,ENE,59,0.0,0.0,94,0.00,,,0.00,WUHU216DAVISVP2,2013-08-20 04:56:00,